Content
SEND FEEDBACK

Daily
Averages
Monthly
Summary
Turkmenistan

ASHGABAT, TURKMENISTAN


Home > Asia > Turkmenistan
Elevation: 775 feet     Latitude: 37 58N     Longitude: 058 20E

WEATHER
 
SELECT A DAY
Number of Records: 181,214;   Date Range: 3/15/97 - 10/22/14
 
SHARE

PRINT THIS DATA

[ ← Previous Day ]
WEATHER ALMANAC - DECEMBER 16, 2013
[ Next Day → ]
[ °C ]   °F
Weather ElementAverageHighLow
Temperature38 °F42.8 °F (1:00 am)35.6 °F (10:30 am)
Dewpoint32.5 °F35.6 °F (12:00 pm)28.4 °F (9:00 pm)
Humidity79.5 %93 % (10:30 am)61 % (1:00 am)
Barometer30.49 in30.64 in (11:00 pm)30.24 in (1:00 am)
Wind Speed4.3 mph17.9 mph (2:00 am)
Weather ElementAverage
Visibility5.8 mi
Wind DirectionESE (113.4 °)

Weather ElementTotal
Precipitation---
Heating Degree Days25.8 (Base 65)
Averaged from 35 records on December 16, 2013
WEATHER CONDITIONS BREAKOUT
WIND DIRECTION BREAKOUT
WEATHER BY HOUR - DECEMBER 16, 2013
[ °C ]   °F
Local TimeTemperatureDewpointHumidityBarometerVisibilityWind DirectionWind SpeedGust SpeedPrecipitationEventsConditions
1:00 AM42.8 °F30.2 °F61 %30.24 in6.2 miNW (310°)13.4 mphMostly Cloudy
2:00 AM40.0 °F33.0 °F69 %30.30 in6.0 miWNW (290°)17.9 mphPartly Cloudy
2:00 AM39.2 °F33.8 °F81 %30.27 in6.2 miWNW (290°)17.9 mphMostly Cloudy
3:00 AM39.2 °F33.8 °F81 %30.30 in6.2 miWNW (300°)17.9 mphOvercast
4:00 AM39.2 °F33.8 °F81 %30.33 in6.2 miNNW (330°)6.7 mphOvercast
5:00 AM38.0 °F33.0 °F77 %30.40 in6.0 miNW (310°)4.5 mphOvercast
5:00 AM37.4 °F33.8 °F87 %30.39 in6.2 miWNW (300°)4.5 mphOvercast
6:00 AM37.4 °F32.0 °F81 %30.39 in6.2 miNW (310°)4.5 mphRainLight Rain
7:00 AM37.4 °F32.0 °F81 %30.42 in6.2 miVariable2.2 mphSnowLight Snow
8:00 AM36.0 °F32.0 °F81 %30.47 in6.0 miCalmSnowLight Snow
8:00 AM37.4 °F32.0 °F81 %30.42 in6.2 miNE (50°)2.2 mphOvercast
9:00 AM37.4 °F32.0 °F81 %30.45 in6.2 miNNE (20°)4.5 mphOvercast
10:00 AM37.4 °F32.0 °F81 %30.51 in4.3 miNorth (10°)6.7 mphRainLight Rain Showers
10:30 AM35.6 °F33.8 °F93 %30.54 in3.1 miNorth (360°)6.7 mphRain-SnowLight Rain
11:00 AM36.0 °F34.0 °F87 %30.58 in1.0 miNNE (30°)4.5 mphSnowLight Snow
11:00 AM35.6 °F33.8 °F93 %30.54 inNNE (30°)2.2 mphRain-SnowLight Rain
11:30 AM35.6 °F33.8 °F93 %30.54 inCalmRain-SnowLight Rain
12:00 PM37.4 °F35.6 °F93 %30.54 inNorth (10°)4.5 mphRain-SnowLight Rain
12:30 PM35.6 °F33.8 °F93 %30.51 inNorth (360°)4.5 mphRain-SnowLight Rain
1:00 PM35.6 °F33.8 °F93 %30.51 in6.2 miNNE (20°)2.2 mphLight Drizzle
1:30 PM37.4 °F33.8 °F87 %30.51 in6.2 miNorth (10°)2.2 mphOvercast
2:00 PM37.0 °F34.0 °F83 %30.56 in6.0 miCalmRainLight Drizzle
2:00 PM37.4 °F33.8 °F87 %30.51 in6.2 miVariable2.2 mphOvercast
3:00 PM37.4 °F32.0 °F81 %30.51 in6.2 miCalmOvercast
4:00 PM39.2 °F32.0 °F75 %30.51 in6.2 miVariable2.2 mphOvercast
5:00 PM39.2 °F32.0 °F75 %30.54 in6.2 miVariable2.2 mphOvercast
5:00 PM39.0 °F32.0 °F68 %30.58 in6.0 miNorth (10°)2.2 mphPartly Cloudy
6:00 PM39.2 °F32.0 °F75 %30.54 in6.2 miCalmOvercast
7:00 PM39.2 °F32.0 °F75 %30.57 in6.2 miCalmOvercast
8:00 PM39.0 °F34.0 °F76 %30.61 in6.0 miEast (80°)4.5 mphOvercast
8:00 PM39.2 °F30.2 °F70 %30.57 in6.2 miEast (80°)4.5 mphOvercast
9:00 PM39.2 °F28.4 °F65 %30.60 in6.2 miNE (50°)2.2 mphOvercast
10:00 PM39.2 °F28.4 °F65 %30.57 in6.2 miENE (70°)2.2 mphOvercast
11:00 PM38.0 °F31.0 °F68 %30.64 in6.0 miCalmOvercast
11:00 PM39.2 °F28.4 °F65 %30.60 in6.2 miCalmOvercast
Hourly data recorded from UTAA, located miles away from Ashgabat, Turkmenistan







STORIES FROM OUR PARTNERS